Tracking 29068 objects as of 19-Jul-2024
HD Live streaming from Space Station
objects crossing your sky now

TITAN 34B AGENA D DEB

Track TITAN 34B AGENA D DEB now!
10-day predictions


NORAD ID: 23811
Int'l Code: 1983-078C
Perigee: 490.6 km
Apogee: 13,582.1 km
Inclination: 63.4 °
Period: 257.5 minutes
Semi major axis: 13407 km
RCS: Unknown
Launch date: July 31, 1983
Source: United States (US)
Launch site: AIR FORCE WESTERN TEST RANGE (AFWTR)

Note: This is SATELLITE DEBRIS
Your satellite tracking list
Your tracking list is empty




NASA's NSSDC Master Catalog

Two Line Element Set (TLE):
1 23811U 83078C   24200.45505385  .00002190  00000-0  27918-2 0  9995
2 23811  63.4244 156.0355 4882208 246.9707  55.4326  5.59226891 98517
Source of the keplerian elements: AFSPC